Hourly Data Report for February 27, 2019

TORONTO CITY
ONTARIO
Current Station Operator: ECCC - MSC

43°40'00.000" N
79°24'00.000" W
112.50 m
6158355
71508
XTO

Download Data

Hourly Data (February 2019)
Hourly Data Report for February 27, 2019
TIME
LST
Temp Definition
°C
Dew Point Definition
°C
Rel Hum Definition
%
Precip. Amount Definition
mm

Wind Dir Definition
10's deg

Wind Spd Definition
km/h
Visibility Definition
km
Stn Press Definition
kPa
Hmdx Definition


Wind Chill Definition


Weather Definition


00:00 -9.3 -15.5 61 0.0       101.87     LegendNANA
01:00 -9.9 -16.3 59 0.0       101.89     LegendNANA
02:00 -10.2 -16.3 61 0.0       101.82     LegendNANA
03:00 -10.2 -16.7 59 0.0       101.75     LegendNANA
04:00 -10.7 -19.3 49 0.0       101.72     LegendNANA
05:00 -10.2 -17.3 56 0.0       101.62     LegendNANA
06:00 -9.8 -16.7 57 0.0       101.58     LegendNANA
07:00 -10.6 -14.3 74 0.0       101.52     LegendNANA
08:00 -10.8 -13.1 83 0.2       101.44     LegendNANA
09:00 -9.7 -11.7 85 0.6       101.35     LegendNANA
10:00 -8.4 -10.0 88 1.0       101.15     LegendNANA
11:00 -7.1 -9.1 85 0.5       101.01     LegendNANA
12:00 -7.3 -9.3 86 0.2       100.82     LegendNANA
13:00 -7.1 -8.6 89 0.9       100.70     LegendNANA
14:00 -8.2 -9.6 90 1.6       100.56     LegendNANA
15:00 -8.4 -9.9 89 1.7       100.46     LegendNANA
16:00 -9.4 -10.9 89 1.3       100.40     LegendNANA
17:00 -10.4 -12.2 87 0.5       100.38     LegendNANA
18:00 -10.2 -12.2 86 0.0       100.36     LegendNANA
19:00 -10.4 -12.6 84 0.0       100.41     LegendNANA
20:00 -11.1 -13.6 82 0.2       100.46     LegendNANA
21:00 -11.2 -13.7 81 0.0       100.47     LegendNANA
22:00 -11.4 -14.0 81 0.0       100.53     LegendNANA
23:00 -11.6 -14.3 80 0.0       100.56     LegendNANA

Notes on Data Quality.

Legend

  • E = Estimated
  • M = Missing
  • NA = Not Available*
  • [empty] = Indicates an unobserved value
Date modified: